Date String (YYYY-MM-DD hh:mm:ss) UTC,Instrument flags,Ambient pressure (hPa),Sample flow (lpm),Bypass flow (lpm),Sample temperature (°C),Ambient temperature (°C),ASC tube jacket temperature (°C),LED temperature (°C),Box temperature (°C),Sample RH (%),Span deviation,Mass concentration (μg/m³),Mass concentration (μg/m³),Mass concentration (μg/m³)
DateTimeUTC,F1_M11,P_M11,Q1_M11,Q2_M11,T1_M11,T2_M11,T3_M11,T4_M11,T5_M11,U1_M11,ZSPAN_M11,X0_M11,X2_M11,X1_M11
2022-04-22 09:00:00,,0817.5,5.01,0.00,30.2,29.3,00.0,39.2,32.0,08.9,0000.0,0021.44,0007.64,0004.76
2022-04-22 09:01:00,,0817.5,4.99,0.00,30.3,29.3,00.0,39.2,32.0,08.9,0000.0,0021.73,0007.63,0004.80
2022-04-22 09:02:00,,0817.4,4.99,0.00,30.3,29.3,00.0,39.2,32.0,08.7,0000.0,0021.67,0007.76,0004.87
2022-04-22 09:03:00,,0817.4,5.01,0.00,30.3,29.3,00.0,39.2,32.0,08.8,0001.5,0021.67,0007.90,0004.95
2022-04-22 09:04:00,,0817.2,5.01,0.00,30.3,29.3,00.0,39.2,32.0,08.8,0004.3,0021.74,0008.05,0005.02
2022-04-22 09:05:00,,0817.0,4.99,0.00,30.2,29.3,00.0,39.2,32.0,08.6,0004.0,0021.52,0008.07,0005.04
2022-04-22 09:06:00,,0817.1,5.00,0.00,30.3,29.3,00.0,39.2,32.0,08.6,0003.8,0021.35,0008.05,0005.04
2022-04-22 09:07:00,,0817.2,5.00,0.00,30.3,29.3,00.0,39.2,32.0,08.4,0004.5,0022.08,0008.04,0005.02
2022-04-22 09:08:00,,0817.5,4.99,0.00,30.3,29.3,00.0,39.2,32.0,08.2,0004.8,0022.15,0007.95,0004.98
2022-04-22 09:09:00,,0817.5,5.01,0.00,30.2,29.3,00.0,39.2,32.0,08.4,0004.9,0020.94,0007.85,0004.96
2022-04-22 09:10:00,,0817.6,5.00,0.00,30.2,29.2,00.0,39.2,31.9,08.2,0004.3,0019.92,0007.77,0004.91
2022-04-22 09:11:00,,0817.5,4.99,0.00,30.2,29.2,00.0,39.2,31.9,07.8,0003.6,0019.25,0007.52,0004.84
2022-04-22 09:12:00,,0817.5,5.01,0.00,30.2,29.2,00.0,39.2,31.9,07.6,0004.0,0018.61,0007.40,0004.77
2022-04-22 09:13:00,,0817.3,4.99,0.00,30.2,29.2,00.0,39.2,31.9,07.7,0004.3,0017.92,0007.26,0004.68
2022-04-22 09:14:00,,0817.2,5.00,0.00,30.2,29.2,00.0,39.2,31.9,07.8,0003.6,0017.92,0007.09,0004.60
2022-04-22 09:15:00,,0817.1,5.01,0.00,30.2,29.2,00.0,39.2,31.9,07.9,0002.6,0017.28,0006.88,0004.50
2022-04-22 09:16:00,,0817.2,4.99,0.00,30.2,29.2,00.0,39.2,31.9,07.7,0002.1,0016.55,0006.77,0004.41
2022-04-22 09:17:00,,0817.2,4.99,0.00,30.2,29.2,00.0,39.2,31.9,07.7,0000.6,0016.27,0006.67,0004.33
2022-04-22 09:18:00,,0817.3,5.02,0.00,30.2,29.2,00.0,39.2,31.9,07.8,0000.0,0015.12,0006.53,0004.26
2022-04-22 09:19:00,,0817.4,4.99,0.00,30.2,29.2,00.0,39.2,31.9,07.8,0000.0,0013.98,0006.37,0004.21
2022-04-22 09:20:00,,0817.4,4.99,0.00,30.2,29.2,00.0,39.2,31.9,07.8,0000.0,0014.02,0006.29,0004.17
2022-04-22 09:21:00,,0817.3,5.01,0.00,30.2,29.2,00.0,39.2,31.9,07.8,0000.0,0013.97,0006.20,0004.13
2022-04-22 09:22:00,,0817.4,4.99,0.00,30.2,29.2,00.0,39.2,31.9,07.8,0000.0,0014.00,0006.18,0004.11
2022-04-22 09:23:00,,0817.4,5.02,0.00,30.2,29.2,00.0,39.2,31.9,07.9,0000.0,0014.35,0006.15,0004.11
2022-04-22 09:24:00,,0817.4,5.00,0.00,30.2,29.2,00.0,39.2,31.9,07.9,0000.0,0014.79,0006.16,0004.11
2022-04-22 09:25:00,,0817.3,4.99,0.00,30.2,29.2,00.0,39.2,31.9,07.8,0000.0,0014.82,0006.25,0004.13
2022-04-22 09:26:00,,0817.4,5.00,0.00,30.2,29.2,00.0,39.2,31.9,07.8,0000.0,0015.39,0006.36,0004.16
2022-04-22 09:27:00,,0817.4,5.01,0.00,30.2,29.2,00.0,39.2,31.9,07.9,0000.0,0015.31,0006.34,0004.18
2022-04-22 09:28:00,,0817.3,4.99,0.00,30.1,29.2,00.0,39.1,31.9,07.9,0000.0,0015.82,0006.31,0004.19
2022-04-22 09:29:00,,0817.2,5.00,0.00,30.2,29.2,00.0,39.1,31.9,08.0,0000.0,0016.59,0006.39,0004.22
2022-04-22 09:30:00,,0817.2,5.02,0.00,30.2,29.2,00.0,39.1,31.9,08.0,0000.0,0016.75,0006.55,0004.25
2022-04-22 09:31:00,,0817.2,4.99,0.00,30.2,29.2,00.0,39.1,31.9,07.9,0000.0,0016.52,0006.56,0004.24
2022-04-22 09:32:00,,0817.2,5.00,0.00,30.2,29.2,00.0,39.1,31.9,07.9,0000.0,0016.84,0006.63,0004.26
2022-04-22 09:33:00,,0817.2,4.99,0.00,30.2,29.2,00.0,39.1,31.9,07.9,0000.0,0016.79,0006.69,0004.29
2022-04-22 09:34:00,,0817.2,4.98,0.00,30.2,29.2,00.0,39.1,31.9,08.1,0000.0,0017.06,0006.78,0004.32
2022-04-22 09:35:00,,0817.2,5.02,0.00,30.2,29.2,00.0,39.1,31.9,08.1,0000.0,0017.48,0006.81,0004.36
2022-04-22 09:36:00,,0817.2,4.99,0.00,30.2,29.2,00.0,39.1,31.9,08.1,0000.0,0017.38,0006.86,0004.39
2022-04-22 09:37:00,,0817.3,5.00,0.00,30.2,29.2,00.0,39.1,31.9,08.2,0000.0,0017.41,0006.88,0004.42
2022-04-22 09:38:00,,0817.3,5.01,0.00,30.2,29.2,00.0,39.1,31.9,08.2,0000.0,0017.66,0006.92,0004.44
2022-04-22 09:39:00,,0817.4,5.01,0.00,30.2,29.2,00.0,39.1,31.9,08.2,0000.0,0017.15,0006.93,0004.46
2022-04-22 09:40:00,,0817.4,4.99,0.00,30.2,29.2,00.0,39.1,31.9,08.3,0000.0,0017.06,0006.99,0004.49
2022-04-22 09:41:00,,0817.3,4.99,0.00,30.2,29.2,00.0,39.1,31.9,08.6,0000.0,0017.80,0007.00,0004.52
2022-04-22 09:42:00,,0817.2,5.01,0.00,30.2,29.2,00.0,39.1,31.9,09.2,0000.0,0018.93,0007.15,0004.59
2022-04-22 09:43:00,,0817.1,4.99,0.00,30.2,29.2,00.0,39.1,31.9,09.6,0000.2,0019.39,0007.31,0004.67
2022-04-22 09:44:00,,0817.1,4.99,0.00,30.2,29.2,00.0,39.1,31.9,09.6,0003.7,0020.12,0007.44,0004.76
2022-04-22 09:45:00,,0817.1,5.01,0.00,30.2,29.2,00.0,39.1,31.9,09.4,0003.8,0020.86,0007.62,0004.84
2022-04-22 09:46:00,,0817.1,4.99,0.00,30.2,29.2,00.0,39.1,31.9,09.5,0003.8,0020.90,0007.75,0004.89
2022-04-22 09:47:00,,0817.1,5.01,0.00,30.2,29.2,00.0,39.1,31.9,09.7,0003.2,0021.68,0007.89,0004.96
2022-04-22 09:48:00,,0817.1,4.99,0.00,30.2,29.2,00.0,39.1,31.9,09.8,0003.7,0022.00,0007.96,0005.03
2022-04-22 09:49:00,,0817.2,5.02,0.00,30.2,29.2,00.0,39.1,31.9,09.9,0003.3,0022.78,0008.15,0005.12
2022-04-22 09:50:00,,0817.4,4.99,0.00,30.2,29.2,00.0,39.2,31.9,10.5,0003.0,0023.71,0008.38,0005.23
2022-04-22 09:51:00,,0817.4,4.99,0.00,30.2,29.2,00.0,39.1,31.9,10.4,0003.1,0024.54,0008.47,0005.32
2022-04-22 09:52:00,,0817.4,5.01,0.00,30.2,29.1,00.0,39.1,31.9,11.0,0002.6,0025.12,0008.67,0005.42
2022-04-22 09:53:00,,0817.3,4.99,0.00,30.2,29.1,00.0,39.1,31.9,11.3,0002.2,0025.85,0008.86,0005.52
2022-04-22 09:54:00,,0817.3,5.00,0.00,30.1,29.1,00.0,39.1,31.9,11.5,0002.2,0026.31,0009.00,0005.59
2022-04-22 09:55:00,,0817.2,5.00,0.00,30.1,29.1,00.0,39.1,31.8,11.8,0002.1,0027.32,0009.17,0005.67
2022-04-22 09:56:00,,0817.1,4.99,0.00,30.1,29.1,00.0,39.1,31.8,13.2,0002.7,0027.17,0009.32,0005.77
2022-04-22 09:57:00,,0817.0,5.00,0.00,30.1,29.1,00.0,39.1,31.8,13.4,0003.0,0027.27,0009.53,0005.91
2022-04-22 09:58:00,,0817.1,5.00,0.00,30.1,29.1,00.0,39.1,31.8,13.3,0002.7,0027.49,0009.65,0006.00
2022-04-22 09:59:00,,0817.2,5.00,0.00,30.1,29.1,00.0,39.1,31.8,13.6,0002.2,0029.77,0009.88,0006.13
